#timestamp,LO_Frequency,Hit,StdDev 
1514120415.8,286046992.6,N
1514120435.6,286046988.5,N
1514120455.4,286046990.3,N
1514120475.2,286046991.2,N
1514120495.1,286046989.8,N
1514120496.0,286046989.8,N
1514120515.8,286046990.9,N
1514120535.6,286046992.7,N
1514120555.5,286046987.7,Y
1514120575.3,286047002.1,P
1514120595.1,286047004.1,N
1514120615.9,286047001.3,N
1514120635.7,286047005.8,N
1514120655.5,286047002.1,N
1514120675.4,286047002.4,N
1514120695.2,286046995.8,N
1514120715.0,286046996.4,N
1514120715.9,286046996.4,N
1514120735.8,286046996.5,N
1514120755.6,286046999.1,N
1514120775.4,286046997.8,N
1514120795.2,286046997.1,N
1514120815.1,286046998.6,N
1514120816.0,286046998.6,N
1514120835.8,286047004.4,N
1514120855.6,286047005.1,N
1514120875.5,286047009.0,N
1514120895.3,286047007.9,N
1514120915.1,286047009.8,N
1514120935.9,286047008.5,N
1514120955.7,286047012.0,N
1514120975.5,286047013.4,N
1514120995.4,286047015.2,N
1514121015.2,286047012.5,N
1514121035.0,286047013.0,N
1514121035.9,286047013.0,N
1514121055.8,286047009.1,N
1514121075.6,286047009.0,N
1514121095.4,286047008.7,N
1514121115.2,286047008.3,N
1514121135.1,286047007.7,N
1514121136.0,286047007.7,N
1514121155.8,286047013.7,N
1514121175.6,286047009.5,N
1514121195.5,286047008.2,N
1514121215.3,286047006.9,N
1514121235.1,286047006.0,N
1514121255.9,286047002.0,N
1514121275.7,286047002.2,N
1514121295.5,286047007.5,N
1514121315.4,286047003.9,N
1514121335.2,286047000.0,N
1514121355.0,286047001.7,N
1514121355.9,286047001.7,N
1514121375.8,286047000.8,N
1514121395.6,286047000.3,N
1514121415.4,286046999.0,N
1514121435.3,286047000.1,N
1514121455.1,286047002.5,N
1514121456.0,286047002.5,N
1514121475.8,286046997.3,N
1514121495.6,286046996.0,N
1514121515.5,286046992.1,N
1514121535.3,286046994.1,N
1514121555.1,286046990.3,N
1514121575.9,286046993.1,N
1514121595.7,286046992.8,N
1514121615.5,286046989.1,N
1514121635.4,286046989.1,N
1514121655.2,286046989.4,N
1514121675.0,286046991.6,N
1514121675.9,286046991.6,N
1514121695.8,286046992.2,N
1514121715.6,286046992.4,N
1514121735.4,286046988.9,N
1514121755.3,286046985.8,N
1514121775.1,286046983.8,N
1514121776.0,286046983.8,N
1514121795.8,286046987.3,N
1514121815.6,286046990.5,N
1514121835.5,286046991.2,N
1514121855.3,286046992.2,N
1514121875.1,286046990.5,N
1514121895.9,286046991.1,N
1514121915.7,286046986.9,N
1514121935.5,286046986.0,N
1514121955.4,286046986.3,N
1514121975.2,286046986.0,Y
1514121995.0,286047000.3,P
1514121995.9,286047000.3,N
1514122015.8,286047001.8,N
1514122035.6,286047000.7,N
1514122055.4,286046998.3,N
1514122075.3,286046999.8,N
1514122095.1,286046999.4,N
1514122096.0,286046999.4,N
1514122115.8,286046999.8,N
1514122135.7,286047003.6,N
1514122155.5,286047013.5,Y
1514122175.3,286047019.0,P
1514122195.2,286047022.6,N
1514122215.9,286047023.9,N
1514122235.7,286047030.0,Y
1514122255.6,286047017.0,P
1514122275.4,286047016.1,P
1514122295.2,286047013.4,P
1514122315.1,286047011.3,Y
1514122316.0,286047011.3,P
1514122335.8,286046997.0,N
1514122355.6,286047001.2,N
1514122375.5,286047000.2,N
1514122395.3,286047003.7,N
1514122415.1,286047003.2,N
1514122435.9,286047003.3,N
1514122455.7,286047003.7,N
1514122475.5,286047003.2,N
1514122495.3,286047006.8,N
1514122515.2,286047001.5,N
1514122535.0,286047001.1,N
1514122535.9,286047001.1,N
1514122555.7,286046993.4,N
1514122575.6,286046988.6,N
1514122595.4,286046989.8,N
1514122615.2,286046992.8,N
1514122635.1,286046991.7,N
1514122636.0,286046991.7,N
1514122655.8,286046992.3,N
1514122675.6,286046991.5,N
1514122695.5,286046991.8,N
1514122715.3,286046994.1,N
1514122735.1,286046990.1,N
1514122755.9,286046989.2,N
1514122775.7,286046983.8,N
1514122795.5,286046983.3,N
1514122815.3,286046982.7,N
1514122835.2,286046986.4,N
1514122855.0,286046986.0,N
1514122855.9,286046986.0,N
1514122875.7,286046983.5,N
1514122895.6,286046982.9,N
1514122915.4,286046984.3,N
1514122935.2,286046987.2,N
1514122955.1,286046989.5,N
1514122956.0,286046989.5,N
1514122975.8,286046990.4,N
1514122995.6,286046996.0,N
1514123015.5,286046994.6,N
1514123035.3,286046989.6,N
1514123055.1,286046990.3,N
1514123075.9,286046991.9,N
1514123095.7,286046997.8,N
1514123115.5,286046995.4,N
1514123135.4,286046996.5,N
1514123155.2,286046998.0,N
1514123175.0,286046998.4,N
1514123175.9,286046998.4,N
1514123195.8,286047001.5,N
1514123215.6,286047005.0,N
1514123235.4,286047004.2,N
1514123255.2,286047003.1,N
1514123275.1,286047005.4,N
1514123276.0,286047005.4,N
1514123295.8,286047004.7,N
1514123315.6,286047008.9,N
1514123335.5,286047009.3,N
1514123355.3,286047012.3,N
1514123375.1,286047011.2,N
1514123395.9,286047011.6,N
1514123415.7,286047013.4,N
1514123435.5,286047016.5,N
1514123455.4,286047009.3,N
1514123475.2,286047004.7,N
1514123495.0,286047008.6,N
1514123495.9,286047008.6,N
1514123515.8,286047010.8,N
1514123535.6,286047006.5,N
1514123555.4,286047002.5,N
1514123575.3,286047007.6,N
1514123595.1,286047007.5,N
1514123596.0,286047007.5,N
1514123615.8,286047008.4,N
1514123635.7,286047011.7,N
1514123655.5,286047013.3,N
1514123675.3,286047009.3,N
1514123695.1,286047010.0,N
1514123715.9,286047016.5,Y
1514123735.7,286047012.3,P
1514123755.6,286047009.4,P
1514123775.4,286047016.6,P
1514123795.2,286047016.6,Y
1514123815.1,286047007.9,P
1514123816.0,286047007.9,P
1514123835.8,286047008.5,P
1514123855.6,286047012.1,Y
1514123875.5,286046999.2,P
1514123895.3,286046999.1,N
1514123915.1,286046999.0,N
1514123935.9,286047004.4,N
1514123955.7,286047007.5,N
1514123975.5,286047004.3,N
1514123995.3,286046999.1,N
